Weather reports worldwide

Advertisment
Treviso/S. Angelo, Italy (16099): temperature & dewpoint: 19.09.2018 12:00:00 - 25.09.2018 12:00:00 (CEST)Treviso/S. Angelo, Italy (16099): wind speed: 19.09.2018 12:00:00 - 25.09.2018 12:00:00 (CEST)Treviso/S. Angelo, Italy (16099): wind direction: 19.09.2018 12:00:00 - 25.09.2018 12:00:00 (CEST)Treviso/S. Angelo, Italy (16099): reduced air pressure: 19.09.2018 12:00:00 - 25.09.2018 12:00:00 (CEST)Treviso/S. Angelo, Italy (16099): visibility: 19.09.2018 12:00:00 - 25.09.2018 12:00:00 (CEST)Treviso/S. Angelo, Italy (16099): precipitation: 19.09.2018 12:00:00 - 25.09.2018 12:00:00 (CEST)
Date & Time tt [°C] td [°C] ff [km/h] ff [kn] dd ppp [hPa] vv [km] rr [mm]
25.09.2018 12:00:00 - - - - - - - -
25.09.2018 11:00:00 17,6 1,7 9 5 ENE 1033,2 30 0,0
25.09.2018 10:00:00 - - - - - - - -
25.09.2018 09:00:00 - - - - - - - -
25.09.2018 08:00:00 12,4 4,7 4 2 N 1031,7 30 -
25.09.2018 07:00:00 - - - - - - - -
25.09.2018 06:00:00 - - - - - - - -
25.09.2018 05:00:00 12,5 5,3 8 4 NNE 1030,8 - 0,0
25.09.2018 04:00:00 - - - - - - - -
25.09.2018 03:00:00 - - - - - - - -
25.09.2018 02:00:00 13,9 5,5 5 3 NNE 1030,4 - -
25.09.2018 01:00:00 - - - - - - - -
25.09.2018 00:00:00 - - - - - - - -
24.09.2018 23:00:00 15,7 6,8 13 7 E 1028,8 20 0,0
24.09.2018 22:00:00 - - - - - - - -
24.09.2018 21:00:00 - - - - - - - -
24.09.2018 20:00:00 18,3 9,3 5 3 ESE 1025,5 20 -
24.09.2018 19:00:00 - - - - - - - -
24.09.2018 18:00:00 - - - - - - - -
24.09.2018 17:00:00 21,2 8,9 22 12 ESE 1022,3 25 0,0
24.09.2018 16:00:00 - - - - - - - -
24.09.2018 15:00:00 - - - - - - - -
24.09.2018 14:00:00 23,8 11,3 26 14 ESE 1019,5 20 -
24.09.2018 13:00:00 - - - - - - - -
24.09.2018 12:00:00 - - - - - - - -
24.09.2018 11:00:00 23,9 14,2 24 13 E 1016,4 25 0,0
24.09.2018 10:00:00 - - - - - - - -
24.09.2018 09:00:00 - - - - - - - -
24.09.2018 08:00:00 19,9 19,2 2 1 N 1011,8 - -
24.09.2018 07:00:00 - - - - - - - -
24.09.2018 06:00:00 - - - - - - - -
24.09.2018 05:00:00 19,9 18,9 2 1 - 1009,7 - 0,0
24.09.2018 04:00:00 - - - - - - - -
24.09.2018 03:00:00 - - - - - - - -
24.09.2018 02:00:00 20,0 19,0 2 1 N 1009,8 - -
24.09.2018 01:00:00 - - - - - - - -
24.09.2018 00:00:00 - - - - - - - -
23.09.2018 23:00:00 20,7 19,1 4 2 NNW 1012,7 - 0,0
23.09.2018 22:00:00 - - - - - - - -
23.09.2018 21:00:00 - - - - - - - -
23.09.2018 20:00:00 21,8 18,9 4 2 N 1014,2 - -
23.09.2018 19:00:00 - - - - - - - -
23.09.2018 18:00:00 - - - - - - - -
23.09.2018 17:00:00 24,4 18,0 4 2 N 1015,9 20 0,0
23.09.2018 16:00:00 - - - - - - - -
23.09.2018 15:00:00 - - - - - - - -
23.09.2018 14:00:00 22,6 17,7 5 3 NE 1018,2 20 -
23.09.2018 13:00:00 - - - - - - - -
23.09.2018 12:00:00 - - - - - - - -
23.09.2018 11:00:00 19,8 15,6 8 4 NNE 1019,3 20 0,0
23.09.2018 10:00:00 - - - - - - - -
23.09.2018 09:00:00 - - - - - - - -
23.09.2018 08:00:00 17,8 13,9 5 3 NNE 1018,4 20 -
23.09.2018 07:00:00 - - - - - - - -
23.09.2018 06:00:00 - - - - - - - -
23.09.2018 05:00:00 17,3 13,6 8 4 NE 1018,3 - 0,0
23.09.2018 04:00:00 - - - - - - - -
23.09.2018 03:00:00 - - - - - - - -
23.09.2018 02:00:00 16,7 13,4 8 4 NNE 1019,5 - -
23.09.2018 01:00:00 - - - - - - - -
23.09.2018 00:00:00 - - - - - - - -
22.09.2018 23:00:00 16,6 13,8 15 8 NE 1019,7 - 0,0
22.09.2018 22:00:00 - - - - - - - -
22.09.2018 21:00:00 - - - - - - - -
22.09.2018 20:00:00 19,0 12,1 13 7 NNE 1018,9 20 -
22.09.2018 19:00:00 - - - - - - - -
22.09.2018 18:00:00 - - - - - - - -
22.09.2018 17:00:00 22,4 17,1 26 14 NE 1016,8 15 0,0
22.09.2018 16:00:00 - - - - - - - -
22.09.2018 15:00:00 - - - - - - - -
22.09.2018 14:00:00 26,2 20,6 8 4 ENE 1016,3 20 -
22.09.2018 13:00:00 - - - - - - - -
22.09.2018 12:00:00 - - - - - - - -
22.09.2018 11:00:00 23,9 20,9 11 6 NE 1016,1 10 0,0
22.09.2018 10:00:00 - - - - - - - -
22.09.2018 09:00:00 - - - - - - - -
22.09.2018 08:00:00 21,0 19,0 8 4 NNE 1014,7 6 -
22.09.2018 07:00:00 - - - - - - - -
22.09.2018 06:00:00 - - - - - - - -
22.09.2018 05:00:00 20,7 18,3 5 3 N 1014,0 - 0,0
22.09.2018 04:00:00 - - - - - - - -
22.09.2018 03:00:00 - - - - - - - -
22.09.2018 02:00:00 21,1 18,8 2 1 N 1014,2 - -
22.09.2018 01:00:00 - - - - - - - -
22.09.2018 00:00:00 - - - - - - - -
21.09.2018 23:00:00 22,5 20,0 4 2 WSW 1014,5 10 0,0
21.09.2018 22:00:00 - - - - - - - -
21.09.2018 21:00:00 - - - - - - - -
21.09.2018 20:00:00 24,8 18,2 4 2 SSE 1013,6 10 -
21.09.2018 19:00:00 - - - - - - - -
21.09.2018 18:00:00 - - - - - - - -
21.09.2018 17:00:00 29,5 17,0 9 5 SW 1014,0 15 0,0
21.09.2018 16:00:00 - - - - - - - -
21.09.2018 15:00:00 - - - - - - - -
21.09.2018 14:00:00 28,8 17,2 8 4 SW 1015,1 20 -
21.09.2018 13:00:00 - - - - - - - -
21.09.2018 12:00:00 - - - - - - - -
21.09.2018 11:00:00 26,5 15,5 2 1 N 1016,0 25 0,0
21.09.2018 10:00:00 - - - - - - - -
21.09.2018 09:00:00 - - - - - - - -
21.09.2018 08:00:00 18,5 16,5 2 1 ENE 1016,2 25 -
21.09.2018 07:00:00 - - - - - - - -
21.09.2018 06:00:00 - - - - - - - -
21.09.2018 05:00:00 18,3 16,4 2 1 WSW 1016,2 - 0,0
21.09.2018 04:00:00 - - - - - - - -
21.09.2018 03:00:00 - - - - - - - -
21.09.2018 02:00:00 20,3 16,2 4 2 NNE 1017,1 - -
21.09.2018 01:00:00 - - - - - - - -
21.09.2018 00:00:00 - - - - - - - -
20.09.2018 23:00:00 21,1 17,6 2 1 N 1017,6 20 0,0
20.09.2018 22:00:00 - - - - - - - -
20.09.2018 21:00:00 - - - - - - - -
20.09.2018 20:00:00 23,9 17,2 2 1 N 1017,2 20 -
20.09.2018 19:00:00 - - - - - - - -
20.09.2018 18:00:00 - - - - - - - -
20.09.2018 17:00:00 29,2 16,8 9 5 SE 1017,4 20 0,0
20.09.2018 16:00:00 - - - - - - - -
20.09.2018 15:00:00 - - - - - - - -
20.09.2018 14:00:00 29,3 17,1 11 6 NE 1018,6 10 -
20.09.2018 13:00:00 - - - - - - - -
20.09.2018 12:00:00 - - - - - - - -
20.09.2018 11:00:00 26,8 17,7 9 5 NE 1020,0 10 0,0
20.09.2018 10:00:00 - - - - - - - -
20.09.2018 09:00:00 - - - - - - - -
20.09.2018 08:00:00 19,4 17,4 2 1 N 1019,6 10 -
20.09.2018 07:00:00 - - - - - - - -
20.09.2018 06:00:00 - - - - - - - -
20.09.2018 05:00:00 19,0 17,4 0 0 N 1019,3 - 0,0
20.09.2018 04:00:00 - - - - - - - -
20.09.2018 03:00:00 - - - - - - - -
20.09.2018 02:00:00 20,8 18,6 4 2 N 1019,8 - -
20.09.2018 01:00:00 - - - - - - - -
20.09.2018 00:00:00 - - - - - - - -
19.09.2018 23:00:00 22,6 19,7 2 1 - 1020,2 10 0,0
19.09.2018 22:00:00 - - - - - - - -
19.09.2018 21:00:00 - - - - - - - -
19.09.2018 20:00:00 24,4 19,3 5 3 SSE 1019,1 10 -
19.09.2018 19:00:00 - - - - - - - -
19.09.2018 18:00:00 - - - - - - - -
19.09.2018 17:00:00 28,4 18,5 8 4 WSW 1018,5 10 0,0
19.09.2018 16:00:00 - - - - - - - -
19.09.2018 15:00:00 - - - - - - - -
19.09.2018 14:00:00 27,6 19,7 4 2 N 1019,6 10 -
19.09.2018 13:00:00 - - - - - - - -
19.09.2018 12:00:00 - - - - - - - -

tt = temperature
td = dewpoint
ff = wind speed
dd = wind direction
ppp = reduced air pressure
vv = visibility
rr = precipitation

Next stations